Location: Invercargill
(46.4000°S, 168.3500°E)
Time: 14:39:26
(UTC+12:00)

Cosmos 1818 - Pass Details

Date: 24 January 2019
Orbit: 772 x 802 km, 65.0° (Epoch: 22 April)

Event Time Altitude Azimuth Distance (km) Brightness Sun altitude
Exits shadow 23:47:48 17° 342° (NNW) 1,917 5.2 -18.0°
Maximum altitude 23:51:58 63° 59° (ENE) 883 3.5 -18.4°
Drops below altitude 10° 23:57:18 10° 138° (SE) 2,358 6.2 -18.9°
Sets 23:59:45 0° 141° (SE) 3,289 7.1 -19.1°
